Location: Highridge
(54.0333°N, 114.1333°W)
Time: 22:00:10
(UTC+00:00)

FO-29 - Visible Passes

Search period start: 19 September 2024 00:00
Search period end: 29 September 2024 00:00
Orbit: 801 x 1320 km, 98.6° (Epoch: 19 September)

Date Brightness Start Highest point End Pass type
(mag) Time Alt. Az. Time Alt. Az. Time Alt. Az.
19 Sep 11.8 06:22:30 10° NE 06:27:08 16° ENE 06:27:23 16° E visible
19 Sep 10.3 08:05:58 10° NNE 08:13:44 60° E 08:13:51 60° ESE visible
19 Sep 10.6 09:51:15 10° N 09:58:32 45° WNW 10:00:19 40° W visible
19 Sep 11.8 11:37:18 10° N 11:41:48 17° NW 11:46:22 10° WNW visible
20 Sep 11.2 07:11:14 10° NNE 07:17:54 31° E 07:17:54 31° E visible
20 Sep 9.9 08:55:55 10° NNE 09:03:47 80° WNW 09:04:22 75° WSW visible
20 Sep 11.3 10:41:33 10° N 10:47:48 28° NW 10:50:50 22° W visible
20 Sep 12.0 12:28:22 10° N 12:30:25 11° NNW 12:32:29 10° NW visible
21 Sep 11.9 06:17:32 10° NE 06:21:51 15° ENE 06:21:56 15° ENE visible
21 Sep 10.4 08:00:48 10° NNE 08:08:24 57° E 08:08:24 57° E visible
21 Sep 10.5 09:46:03 10° N 09:53:26 47° WNW 09:54:52 43° W visible
21 Sep 11.7 11:32:02 10° N 11:36:44 18° NW 11:41:20 10° WNW visible
22 Sep 11.2 07:06:07 10° NNE 07:12:27 30° E 07:12:27 30° E visible
22 Sep 9.9 08:50:44 10° NNE 08:58:39 83° WNW 08:58:55 82° WSW visible
22 Sep 11.2 10:36:20 10° N 10:42:43 29° NW 10:45:22 24° W visible
22 Sep 12.0 12:22:58 10° N 12:25:22 12° NNW 12:27:46 10° NW visible
23 Sep 11.9 06:12:37 10° NE 06:16:29 14° ENE 06:16:29 14° ENE visible
23 Sep 10.5 07:55:39 10° NNE 08:02:57 54° E 08:02:57 54° E visible
23 Sep 10.4 09:40:51 10° N 09:48:20 49° WNW 09:49:25 47° W visible
23 Sep 11.7 11:26:47 10° N 11:31:39 18° NW 11:35:53 12° WNW visible
24 Sep 11.3 07:01:01 10° NNE 07:06:59 28° ENE 07:06:59 28° ENE visible
24 Sep 10.0 08:45:33 10° NNE 08:53:27 87° NW 08:53:27 87° NW visible
24 Sep 11.1 10:31:07 10° N 10:37:38 30° NW 10:39:55 26° WNW visible
24 Sep 12.0 12:17:37 10° N 12:20:18 12° NNW 12:23:01 10° NW visible
25 Sep 12.0 06:07:45 10° NE 06:11:01 13° ENE 06:11:01 13° ENE visible
25 Sep 10.6 07:50:31 10° NNE 07:57:29 50° E 07:57:29 50° E visible
25 Sep 10.4 09:35:40 10° N 09:43:13 51° WNW 09:43:57 50° W visible
25 Sep 11.7 11:21:34 10° N 11:26:35 19° NW 11:30:25 13° WNW visible
26 Sep 11.4 06:55:56 10° NNE 07:01:31 26° ENE 07:01:31 26° ENE visible
26 Sep 10.0 08:40:24 10° NNE 08:47:59 83° NNE 08:47:59 83° NNE visible
26 Sep 11.0 10:25:56 10° N 10:32:33 31° NW 10:34:27 28° WNW visible
26 Sep 12.0 12:12:20 10° N 12:15:15 13° NNW 12:18:11 10° NW visible
27 Sep 12.1 06:02:58 10° NE 06:05:33 12° ENE 06:05:33 12° ENE visible
27 Sep 10.7 07:45:23 10° NNE 07:52:00 47° ENE 07:52:00 47° ENE visible
27 Sep 10.3 09:30:30 10° N 09:38:06 54° WNW 09:38:28 53° WNW visible
27 Sep 11.6 11:16:21 10° N 11:21:31 20° NW 11:24:56 15° WNW visible
28 Sep 11.5 06:50:53 10° NNE 06:56:02 24° ENE 06:56:02 24° ENE visible
28 Sep 10.1 08:35:15 10° NNE 08:42:30 76° NNE 08:42:30 76° NNE visible
28 Sep 11.0 10:20:45 10° N 10:27:27 32° NW 10:28:58 30° WNW visible
28 Sep 11.9 12:07:03 10° N 12:10:12 13° NNW 12:13:19 10° NW visible
